Location: Nied?wied?
(53.3665°N, 14.8184°E)
Time: 18:16:21
(UTC+00:00)

ISS - Pass Details

Date: 16 May 2021
Orbit: 417 x 422 km, 51.6° (Epoch: 14 June)

Event Time Altitude Azimuth Distance (km) Brightness Sun altitude
Rises 20:51:02 0° 239° (WSW) 2,360 0.1 -12.4°
Reaches altitude 10° 20:53:11 10° 232° (SW) 1,500 -1.0 -12.6°
Maximum altitude 20:56:22 42° 161° (SSE) 617 -3.4 -12.8°
Drops below altitude 10° 20:59:36 10° 89° (E) 1,507 -1.2 -13.0°
Sets 21:01:45 0° 82° (E) 2,375 -0.1 -13.2°
